Simultaneous Nadir Overpasses (SNOs) Predictions

Prediction of SNOs between GOES-15 and METOP-C Satellite Orbit:

Table of predicted SNOs for the next 14.0 days since TLE Epoch: 3/26/2022
Index Date Time (GOES-15) GOES-15 Lat,Lon METOP-C Lat,Lon Distance(km) Time Diff (sec)
1 03/26/2022 05:49:44 0.04,-128.27 0.91,-124.38 443.07 80
2 03/27/2022 18:05:57 -0.05,-128.33 0.09,-128.95 70.95 80
3 03/30/2022 06:04:17 0.05,-128.35 -0.01,-128.55 22.80 80
4 04/01/2022 18:05:11 -0.05,-128.44 -0.10,-128.13 34.91 80
5 04/03/2022 06:21:30 0.06,-128.44 -0.92,-132.72 488.71 80
6 04/04/2022 06:03:32 0.06,-128.45 0.24,-127.74 82.41 80
7 04/05/2022 18:19:44 -0.07,-128.51 0.80,-132.30 432.49 80
8 04/06/2022 18:01:45 -0.07,-128.52 -0.31,-127.30 138.21 80
9 04/08/2022 06:18:05 0.08,-128.51 -0.66,-131.91 386.64 80
